Wind_Speed
12 13 15 16 17 18 19 20 20 20 20 20 19 18 17 16 15 14 12 11 11 13 15 18 21 23 25 26 28 28 30 31 32 33 32 32 31 31 31 32 31 29 27
11 13 14 15 16 18 18 20 20 20 20 20 20 20 19 17 16 15 13 11 9 9 11 14 16 19 22 24 26 27 28 29 31 32 33 33 32 32 33 33 33 32 31
10 12 13 15 16 17 18 19 20 20 21 21 21 20 19 19 17 16 14 12 10 9 8 10 13 15 18 20 23 25 26 28 30 31 32 33 33 33 33 34 34 34 33
9 11 13 14 16 17 18 19 20 21 21 21 21 21 20 20 19 18 17 14 11 9 8 9 10 12 14 17 20 23 25 27 29 30 31 32 33 32 33 35 35 35 35
9 10 12 13 14 16 17 19 20 21 21 22 22 22 21 21 20 19 18 16 14 11 9 8 9 11 12 15 18 20 23 26 28 30 30 32 33 33 33 34 35 36 36
8 9 10 12 13 15 17 18 19 20 21 21 22 22 22 22 21 21 20 18 16 14 12 10 9 9 10 12 15 18 20 23 27 29 31 32 33 34 35 36 36 36 37
6 8 9 11 12 14 16 17 18 19 20 21 21 22 22 22 22 22 21 20 19 17 14 12 10 9 9 10 13 16 18 21 24 27 30 32 33 35 36 37 38 38 38
5 7 8 10 12 13 15 16 17 18 19 20 21 21 22 22 22 22 21 21 20 19 17 14 12 11 10 10 11 13 16 19 22 25 28 30 32 34 36 38 39 40 40
4 6 7 9 11 13 14 16 17 18 19 20 21 21 22 22 22 22 22 22 21 20 18 16 14 12 11 11 11 12 14 17 20 23 25 28 31 33 35 37 40 41 42
3 5 7 9 11 12 14 15 16 18 19 20 20 21 22 22 22 23 22 22 22 21 19 18 17 15 14 13 12 11 12 14 17 20 23 26 28 31 33 35 38 40 42
3 4 6 8 11 12 14 15 16 18 19 20 20 21 22 22 22 22 22 22 22 21 20 19 18 18 16 15 14 13 12 13 15 18 21 24 27 29 32 34 36 39 41
3 5 7 9 10 12 14 15 17 18 19 20 21 21 22 22 22 22 22 22 22 21 20 20 19 19 18 17 16 14 13 12 13 15 18 21 24 27 30 32 34 38 40
4 6 7 9 11 13 14 15 17 18 19 20 21 21 22 22 23 22 22 22 21 21 21 20 20 20 20 19 18 16 15 13 13 14 16 18 21 24 27 30 33 35 38
5 7 8 10 12 13 14 16 17 18 19 20 21 22 22 22 22 22 22 22 21 21 21 21 21 21 20 20 19 17 16 14 13 13 14 16 19 21 24 28 31 33 35
7 8 10 11 12 14 15 16 18 19 19 20 21 21 22 22 22 22 22 22 22 21 21 21 21 21 21 21 20 19 17 15 14 14 13 14 16 18 20 23 27 30 32
8 9 11 12 13 14 15 17 18 19 20 20 21 21 22 22 22 22 22 22 22 21 21 21 21 22 22 21 20 19 18 17 15 14 14 13 13 15 17 20 22 26 29
10 11 12 13 14 15 16 17 18 20 20 21 21 22 22 22 22 23 23 22 22 21 21 21 21 21 21 21 20 20 18 17 16 15 14 13 13 13 14 16 19 22 25
12 12 13 14 14 15 16 18 19 20 21 21 22 22 23 23 23 23 23 23 22 22 21 21 21 21 21 21 20 20 18 17 17 15 14 13 13 13 13 14 16 19 22
13 13 14 15 15 16 17 19 19 20 21 22 22 23 23 24 24 24 24 24 23 22 22 21 21 21 21 21 20 20 19 18 17 16 15 14 14 13 12 12 14 16 20
14 15 15 16 17 17 18 19 20 21 22 22 23 23 24 25 25 25 25 24 24 23 23 22 22 22 21 21 20 20 19 19 18 17 16 15 14 14 12 12 12 13 16
16 16 16 17 17 18 19 20 21 22 23 23 24 25 26 26 26 26 25 25 25 24 24 23 23 22 22 21 20 20 19 19 19 19 17 16 15 13 12 11 11 12 13
17 17 17 17 18 19 20 21 22 23 24 25 26 27 27 28 28 27 27 26 26 25 24 24 23 23 22 21 21 20 20 19 19 19 18 16 15 14 13 12 11 11 12
18 18 18 19 19 20 21 22 23 25 26 27 28 29 29 29 29 28 28 27 27 25 24 24 23 23 22 22 21 20 20 19 19 19 18 17 16 15 14 13 12 12 12
20 19 19 20 21 22 23 24 25 26 28 28 29 30 31 30 30 29 28 28 27 26 25 24 23 23 22 21 21 20 20 20 19 19 19 18 17 16 15 14 13 13 12
21 21 21 21 22 24 25 26 27 28 30 30 31 32 32 31 31 30 30 29 28 27 25 25 24 22 22 21 21 20 20 20 20 20 20 19 18 17 16 15 15 14 13
22 22 23 24 24 25 27 28 29 30 31 32 33 33 33 32 32 31 31 30 28 27 26 25 24 23 22 22 21 21 21 21 21 20 20 20 19 18 18 17 16 15 15
Wind_Direction
12 11 12 13 13 11 9 9 8 6 6 5 3 2 358 353 348 342 332 311 287 269 258 251 248 246 244 243 240 238 237 236 235 234 232 230 230 228 227 224 222 222 221
15 15 17 18 16 13 12 13 12 12 11 10 9 7 6 4 1 358 350 337 315 287 267 256 251 248 246 243 241 239 237 236 235 234 233 230 230 230 230 225 222 222 222
18 21 22 20 17 16 16 16 16 16 15 14 13 12 11 10 8 6 2 354 340 318 292 269 258 253 249 246 242 240 238 237 236 236 235 233 230 230 230 226 223 222 222
25 26 25 23 21 21 20 20 19 19 18 17 16 16 14 13 11 9 7 3 354 338 316 290 270 261 254 248 244 240 239 238 236 234 234 233 233 232 231 230 227 223 222
29 28 26 24 23 23 22 21 21 20 20 19 18 17 17 16 14 12 9 7 2 354 339 317 290 273 264 256 248 244 240 238 237 235 233 232 232 233 233 231 229 226 224
32 29 27 24 22 21 20 20 19 19 19 19 19 18 18 17 15 14 12 9 6 0 351 337 319 296 277 265 254 248 245 242 239 237 236 234 233 232 233 232 229 228 226
34 28 25 22 20 19 18 17 17 17 17 17 17 16 15 14 13 12 10 9 6 2 356 347 336 319 300 282 266 256 251 246 243 240 238 237 235 234 234 233 232 231 230
36 29 24 20 17 16 14 13 13 13 13 13 12 12 12 12 11 11 10 8 6 4 1 356 347 333 319 303 285 270 259 252 247 244 241 239 238 237 235 234 233 232 232
36 26 20 16 13 11 10 9 8 8 7 7 6 7 8 9 9 9 9 8 7 6 4 2 357 347 334 320 304 287 271 261 254 249 244 241 240 239 237 236 235 233 232
32 17 11 8 6 5 3 3 3 3 2 2 2 2 4 4 5 5 5 5 5 5 4 3 1 356 348 337 323 307 289 273 261 254 249 245 242 241 240 239 237 235 233
8 359 358 358 357 357 356 356 357 357 357 357 358 358 359 0 0 1 2 2 2 2 2 2 359 357 353 346 336 323 309 290 272 259 254 250 247 244 242 241 238 236 234
332 338 343 346 347 348 348 349 350 352 353 354 354 355 356 358 358 359 359 0 1 1 1 0 359 357 353 348 342 333 323 310 290 272 262 256 252 248 245 242 240 237 235
306 320 329 334 338 340 342 343 345 347 349 351 352 353 355 356 357 357 357 358 359 359 0 359 358 356 354 351 346 340 331 321 306 289 276 265 258 253 248 245 242 239 236
296 311 320 326 330 333 336 338 340 343 345 347 349 351 352 353 354 356 356 356 356 357 357 357 357 357 355 353 350 345 337 329 319 305 290 277 267 258 252 247 243 241 238
291 304 313 319 324 328 331 333 335 338 340 342 345 347 348 349 351 353 354 355 355 355 354 354 355 356 355 354 353 350 345 337 329 320 307 293 280 268 258 251 246 243 240
288 299 308 314 319 323 326 329 332 334 336 338 341 343 345 347 348 350 352 353 353 352 352 352 353 354 353 352 352 351 350 346 340 334 323 311 299 285 270 258 252 246 242
287 295 303 310 315 319 322 326 329 331 332 335 337 338 341 343 344 346 347 348 349 349 349 349 350 352 352 352 351 351 350 348 345 342 335 325 317 304 287 270 259 251 246
284 292 299 306 311 315 319 323 326 328 330 332 333 335 337 339 340 341 342 342 343 344 344 345 346 347 348 349 350 350 349 347 346 343 339 330 323 315 301 282 267 256 250
283 290 297 303 308 313 317 321 324 327 329 330 331 332 333 334 335 336 337 337 338 339 340 340 341 342 343 345 345 346 346 346 344 341 337 331 325 319 310 295 277 263 253
282 289 295 300 305 310 314 318 322 325 327 328 329 330 330 331 331 331 331 332 332 333 333 335 336 337 338 339 341 342 342 341 341 341 338 334 329 323 316 306 291 273 261
282 287 292 297 302 307 312 316 320 323 325 326 327 327 327 327 327 327 327 327 327 328 328 328 330 331 333 335 336 337 337 337 338 339 338 337 334 330 324 313 303 289 274
280 285 290 295 300 305 310 314 317 320 323 324 324 325 325 325 325 325 324 324 324 324 324 325 325 326 327 329 331 332 333 334 335 337 337 336 335 332 328 322 312 301 289
279 284 288 293 298 303 307 311 314 317 319 321 322 322 323 323 323 322 322 321 321 321 321 322 322 322 323 324 325 326 328 329 331 332 333 333 332 330 327 323 317 309 299
279 283 287 291 296 300 304 307 310 313 316 318 319 320 320 320 320 319 319 318 318 318 318 319 319 319 319 319 320 321 322 323 325 327 329 328 328 326 323 320 316 310 302
277 281 285 289 293 298 301 304 307 310 312 314 315 317 317 317 316 316 315 314 314 313 314 314 315 315 314 314 314 315 316 317 319 321 322 324 324 325 321 316 312 308 303
276 280 283 287 291 295 298 301 304 306 308 310 312 314 314 314 314 314 312 311 310 309 310 310 311 311 310 309 309 310 311 312 312 313 315 316 317 318 318 315 311 305 300
Height
5853 5850 5846 5843 5839 5835 5832 5827 5823 5818 5814 5809 5805 5801 5797 5794 5790 5787 5784 5782 5781 5781 5782 5783 5785 5787 5790 5793 5796 5799 5802 5805 5809 5813 5817 5821 5825 5829 5833 5837 5840 5844 5847
5852 5849 5846 5842 5839 5836 5832 5828 5823 5819 5814 5810 5805 5801 5797 5793 5790 5786 5783 5781 5779 5778 5779 5780 5781 5783 5785 5787 5790 5792 5795 5798 5802 5806 5810 5814 5819 5822 5826 5830 5834 5838 5842
5852 5849 5846 5843 5839 5836 5832 5828 5824 5819 5815 5810 5806 5802 5797 5794 5790 5786 5783 5780 5778 5777 5776 5777 5777 5779 5780 5781 5784 5786 5789 5792 5795 5799 5803 5807 5811 5815 5819 5823 5828 5831 5835
5851 5849 5846 5843 5840 5837 5833 5829 5824 5820 5815 5811 5807 5802 5798 5794 5790 5786 5783 5780 5778 5776 5774 5774 5774 5775 5775 5777 5778 5781 5783 5786 5789 5792 5796 5800 5804 5808 5812 5817 5821 5825 5829
5851 5849 5846 5844 5841 5838 5834 5830 5825 5821 5817 5812 5808 5803 5799 5795 5791 5787 5783 5780 5777 5775 5773 5772 5771 5771 5771 5772 5773 5775 5777 5779 5782 5785 5788 5792 5796 5800 5804 5809 5813 5818 5822
5851 5849 5847 5844 5842 5838 5835 5831 5827 5822 5818 5814 5809 5805 5801 5796 5792 5788 5784 5780 5777 5774 5772 5770 5769 5768 5767 5768 5768 5770 5771 5773 5775 5778 5781 5785 5789 5793 5797 5801 5805 5809 5814
5851 5849 5847 5845 5842 5839 5835 5832 5828 5824 5819 5815 5811 5806 5802 5797 5793 5789 5785 5781 5777 5773 5770 5768 5766 5765 5764 5764 5764 5765 5765 5767 5769 5771 5774 5777 5781 5785 5789 5793 5797 5801 5805
5851 5849 5847 5845 5842 5839 5836 5832 5828 5824 5820 5816 5812 5808 5803 5799 5794 5790 5785 5781 5777 5773 5769 5767 5765 5763 5762 5761 5760 5760 5760 5761 5763 5765 5767 5770 5773 5776 5780 5784 5788 5792 5797
5850 5849 5847 5845 5842 5839 5836 5833 5829 5825 5821 5817 5813 5808 5804 5800 5795 5791 5786 5781 5777 5773 5769 5766 5763 5761 5759 5758 5757 5756 5756 5756 5757 5758 5760 5762 5765 5768 5771 5775 5779 5783 5787
5850 5849 5847 5845 5842 5839 5836 5833 5829 5825 5821 5817 5813 5809 5804 5800 5795 5791 5786 5782 5777 5773 5769 5765 5763 5760 5758 5755 5754 5752 5751 5750 5751 5751 5753 5755 5757 5759 5761 5765 5768 5772 5777
5849 5848 5846 5844 5842 5839 5836 5832 5829 5825 5821 5817 5813 5809 5804 5800 5796 5791 5786 5782 5777 5773 5769 5765 5762 5759 5756 5753 5751 5749 5747 5746 5745 5745 5746 5747 5748 5750 5752 5755 5758 5762 5766
5848 5847 5845 5843 5841 5838 5835 5832 5828 5825 5821 5817 5813 5808 5804 5800 5795 5791 5786 5782 5777 5773 5769 5765 5761 5758 5754 5751 5748 5745 5743 5741 5740 5739 5739 5740 5741 5742 5743 5746 5748 5752 5755
5847 5845 5844 5842 5839 5837 5834 5831 5827 5824 5820 5816 5812 5808 5803 5799 5795 5790 5786 5782 5777 5773 5768 5764 5761 5757 5753 5749 5745 5742 5739 5737 5735 5734 5734 5733 5733 5734 5735 5737 5739 5742 5745
5845 5844 5842 5840 5838 5835 5832 5829 5826 5822 5819 5815 5811 5807 5803 5798 5794 5790 5785 5781 5776 5772 5768 5764 5760 5756 5751 5747 5743 5740 5737 5734 5732 5730 5728 5727 5726 5726 5727 5728 5730 5733 5736
5843 5841 5840 5838 5836 5833 5830 5827 5824 5821 5817 5813 5810 5806 5802 5798 5793 5789 5784 5780 5775 5771 5767 5763 5759 5754 5750 5746 5741 5738 5734 5731 5728 5726 5724 5722 5721 5720 5720 5721 5722 5724 5727
5840 5839 5837 5836 5833 5831 5828 5825 5822 5819 5815 5811 5808 5804 5800 5796 5792 5788 5783 5779 5774 5770 5766 5762 5758 5753 5749 5744 5740 5736 5732 5729 5726 5723 5721 5718 5717 5715 5715 5714 5715 5717 5719
5837 5836 5835 5833 5831 5828 5826 5823 5820 5816 5813 5809 5806 5802 5798 5794 5790 5786 5782 5777 5773 5769 5765 5761 5756 5752 5748 5743 5739 5735 5731 5727 5724 5721 5718 5716 5714 5712 5710 5709 5709 5710 5712
5834 5833 5832 5830 5828 5825 5823 5820 5817 5814 5810 5807 5803 5799 5795 5792 5788 5784 5780 5776 5771 5767 5763 5759 5755 5751 5747 5742 5738 5734 5730 5726 5723 5719 5716 5713 5711 5708 5706 5705 5704 5704 5705
5830 5829 5828 5826 5824 5822 5819 5817 5814 5811 5807 5804 5800 5797 5793 5789 5785 5781 5777 5773 5769 5765 5761 5757 5753 5749 5745 5741 5737 5732 5729 5725 5721 5718 5714 5711 5708 5705 5703 5701 5700 5700 5700
5826 5825 5824 5822 5820 5818 5816 5813 5810 5807 5804 5800 5797 5793 5790 5786 5782 5778 5774 5770 5766 5762 5758 5755 5751 5747 5743 5739 5735 5731 5727 5723 5720 5716 5712 5709 5705 5702 5700 5698 5696 5695 5695
5822 5821 5819 5818 5816 5814 5811 5809 5806 5803 5800 5797 5793 5790 5786 5782 5778 5774 5770 5767 5763 5759 5755 5751 5748 5744 5740 5736 5733 5729 5725 5721 5718 5714 5710 5707 5703 5700 5698 5695 5694 5692 5691
5817 5816 5814 5813 5811 5809 5807 5804 5802 5799 5796 5792 5789 5785 5781 5777 5773 5770 5766 5762 5758 5755 5751 5747 5744 5740 5737 5734 5730 5727 5723 5719 5716 5712 5708 5705 5702 5699 5696 5694 5692 5690 5688
5811 5810 5809 5807 5806 5804 5802 5799 5797 5794 5791 5788 5784 5780 5776 5772 5768 5765 5761 5757 5753 5750 5747 5743 5740 5737 5733 5730 5727 5723 5720 5717 5713 5710 5706 5703 5700 5697 5694 5692 5689 5687 5685
5805 5804 5803 5802 5800 5798 5796 5794 5791 5789 5786 5782 5779 5775 5771 5767 5763 5759 5756 5752 5748 5745 5742 5739 5736 5733 5729 5726 5723 5720 5717 5714 5710 5707 5704 5700 5697 5694 5692 5689 5687 5685 5683
5798 5798 5797 5796 5794 5792 5790 5788 5785 5783 5780 5776 5773 5769 5766 5762 5758 5754 5750 5746 5743 5739 5737 5734 5731 5728 5725 5722 5719 5716 5713 5710 5707 5703 5700 5697 5694 5692 5689 5687 5684 5682 5680
5791 5791 5790 5789 5787 5786 5784 5781 5779 5776 5773 5770 5766 5763 5759 5755 5751 5748 5744 5740 5737 5733 5731 5728 5725 5722 5720 5717 5714 5711 5708 5705 5702 5699 5697 5694 5691 5688 5686 5683 5681 5679 5677